EW5295 Weather Reports


time (UTC)temp
F
wind
direction
speed
knots
gust
knots
rain 1hr
in
rain 24hr
in
rain mn
in
humidity
%
barometer
mb
20260904220050 64 126 0.0 0.9 0.00 0.05 0.00 66 1012.7
20260904214539 64 224 0.0 0.9 0.00 0.05 0.00 70 1012.7
20260904213021 64 153 0.0 0.9 0.00 0.05 0.00 68 1012.6
20260904211518 63 164 0.0 0.9 0.00 0.07 0.05 74 1012.5
20260904210005 63 177 0.0 0.9 0.00 0.07 0.05 76 1012.4
20260904204504 64 153 0.0 0.9 0.00 0.07 0.05 68 1012.4
20260904203003 64 187 0.0 0.9 0.00 0.07 0.05 70 1012.3
20260904201622 63 143 0.0 0.9 0.00 0.11 0.05 73 1012.3
20260904200101 63 186 0.0 0.0 0.00 0.11 0.05 71 1012.3
20260904194559 63 155 0.0 0.9 0.00 0.11 0.05 68 1012.4
20260904193102 63 300 0.0 1.7 0.00 0.11 0.05 70 1012.5
20260904191555 63 307 0.0 1.7 0.00 0.11 0.05 74 1012.6
20260904190041 62 140 0.0 0.9 0.00 0.11 0.05 77 1012.6
20260904184542 60 290 0.0 2.6 0.00 0.11 0.05 79 1012.6
20260904183034 59 300 0.0 1.7 0.00 0.11 0.05 84 1012.6
20260904181538 58 300 0.0 0.9 0.01 0.11 0.05 85 1012.5
20260904180035 58 326 0.0 1.7 0.01 0.11 0.05 89 1012.3
20260904174530 57 159 0.0 0.0 0.01 0.11 0.05 89 1012.2
20260904173028 57 178 0.0 0.0 0.01 0.11 0.05 89 1012.2
20260904171538 56 135 0.0 0.9 0.00 0.10 0.04 90 1012.2
20260904170009 56 135 0.0 0.0 0.00 0.10 0.04 91 1012.1
20260904164512 55 135 0.0 0.0 0.00 0.10 0.04 92 1012.0
20260904163056 55 135 0.0 0.9 0.00 0.10 0.04 93 1011.8
20260904161555 55 135 0.0 0.9 0.00 0.17 0.04 94 1011.8
20260904160054 54 219 0.0 0.9 0.00 0.17 0.04 95 1011.7
20260904154554 53 304 0.0 0.0 0.00 0.17 0.04 95 1011.7
20260904153103 53 311 0.0 1.7 0.00 0.17 0.04 95 1011.7
20260904151551 52 302 0.0 0.0 0.00 0.17 0.04 95 1011.4
20260904150054 52 302 0.0 0.9 0.00 0.17 0.04 96 1011.5
20260904144551 0 0.0 0.0 0.00 0.17 0.04 1011.2
20260904143034 0 0.0 0.0 0.00 0.17 0.04 1011.0
20260904141533 0 0.0 0.0 0.00 0.17 0.04 1010.9
20260904140028 0 0.0 0.0 0.00 0.17 0.04 1010.8
20260904134517 0 0.0 0.0 0.00 0.17 0.04 1010.6
20260904133023 0 0.0 0.0 0.00 0.17 0.04 1010.6
20260904131511 0 0.0 0.0 0.00 0.17 0.04 1010.4
20260904130004 0 0.0 0.0 0.00 0.17 0.04 1010.2
20260904124609 0 0.0 0.0 0.00 0.17 0.04 1010.2
20260904123044 0 0.0 0.0 0.01 0.17 0.04 1010.2
20260904121539 0 0.0 0.0 0.02 0.17 0.04 1010.1
20260904120041 54 167 0.0 0.0 0.03 0.17 0.04 95 1010.0
20260904114541 53 168 0.0 0.9 0.04 0.17 0.04 95 1010.0
20260904113040 53 214 0.0 0.0 0.03 0.16 0.03 94 1009.9
20260904111532 53 215 0.0 0.9 0.02 0.15 0.02 94 1009.8
20260904110030 53 215 0.0 0.9 0.01 0.14 0.01 94 1009.7
20260904104533 52 217 0.0 0.0 0.00 0.13 0.00 93 1009.7
20260904103036 52 217 0.0 0.0 0.00 0.13 0.00 93 1009.7
20260904101511 52 217 0.0 0.0 0.00 0.13 0.00 93 1009.6
20260904100011 52 217 0.0 0.0 0.00 0.13 0.00 93 1009.5
20260904094610 51 217 0.0 0.0 0.00 0.13 0.00 93 1009.5
20260904093100 52 217 0.0 0.0 0.00 0.13 0.00 92 1009.4
20260904091555 52 217 0.0 0.0 0.00 0.13 0.00 91 1009.3
20260904090052 53 217 0.0 0.0 0.00 0.13 0.00 91 1009.4
20260904084552 53 217 0.0 0.0 0.00 0.13 0.00 92 1009.3
20260904083050 53 217 0.0 0.0 0.00 0.13 0.00 91 1009.3
20260904081610 53 309 0.0 0.0 0.00 0.13 0.00 91 1009.3
20260904080050 54 309 0.0 0.9 0.00 0.13 0.00 90 1009.4
20260904074559 54 299 0.0 0.9 0.00 0.13 0.00 90 1009.4
20260904073046 53 284 0.0 0.0 0.00 0.13 0.00 90 1009.3
20260904071539 53 284 0.0 0.0 0.00 0.13 0.00 90 1009.3
20260904070034 53 284 0.0 0.0 0.00 0.13 0.00 91 1009.3
20260904064535 53 284 0.0 0.0 0.00 0.13 0.00 91 1009.2
20260904063035 53 284 0.0 0.0 0.00 0.13 0.00 91 1009.3
20260904061532 53 284 0.0 0.0 0.00 0.13 0.00 91 1009.3
20260904060031 53 284 0.0 0.0 0.00 0.13 0.00 90 1009.1
20260904054513 53 284 0.0 0.9 0.00 0.13 0.00 90 1009.3
20260904053012 54 285 0.0 0.9 0.00 0.13 0.00 90 1009.3
20260904051555 54 285 0.0 0.9 0.00 0.13 0.00 90 1009.4
20260904050052 54 200 0.0 0.0 0.00 0.13 0.00 91 1009.5
20260904044534 54 208 0.0 0.9 0.00 0.13 0.00 91 1009.4
20260904043040 55 288 0.0 0.0 0.00 0.13 0.00 91 1009.4
20260904041515 55 289 0.0 1.7 0.00 0.13 0.00 92 1009.5
20260904040015 55 296 0.0 0.9 0.00 0.13 0.00 91 1009.5
20260904034502 55 297 0.0 2.6 0.00 0.13 0.00 90 1009.4
20260904033003 55 301 0.0 0.9 0.00 0.13 0.00 90 1009.1
20260904031501 55 172 0.0 0.0 0.00 0.13 0.00 89 1008.9
20260904024604 55 275 0.0 1.7 0.00 0.13 0.00 89 1008.8
20260904023059 55 281 0.0 0.9 0.00 0.13 0.00 88 1008.7
20260904021601 56 284 0.0 1.7 0.00 0.13 0.00 87 1008.7
20260904020059 56 205 0.0 0.9 0.00 0.13 0.00 86 1008.7
20260904014558 57 296 0.0 1.7 0.00 0.13 0.00 85 1008.6
20260904013040 57 165 0.0 0.9 0.00 0.13 0.00 86 1008.7
20260904011532 58 181 0.0 0.0 0.00 0.13 0.00 84 1008.6
20260904010027 58 166 0.0 0.9 0.00 0.13 0.00 82 1008.7
20260904004525 59 262 0.0 0.9 0.00 0.13 0.00 82 1008.7
20260904003021 58 202 0.0 1.7 0.00 0.13 0.00 84 1008.6
20260904001517 56 167 0.0 0.9 0.00 0.14 0.00 86 1008.7
20260904000050 56 266 0.0 0.9 0.00 0.14 0.00 85 1008.9
20260903234516 56 181 0.0 0.9 0.00 0.14 0.00 87 1008.8
20260903233011 55 170 0.0 0.0 0.00 0.14 0.00 89 1008.8
20260903231608 54 192 0.0 0.0 0.00 0.16 0.00 91 1008.8
20260903230103 54 173 0.0 0.0 0.00 0.16 0.00 91 1009.0
20260903224556 54 149 0.0 3.5 0.00 0.16 0.00 90 1009.3
20260903223051 54 147 0.0 1.7 0.00 0.16 0.00 91 1009.2
20260903221552 54 158 0.0 0.9 0.00 0.17 0.00 92 1009.2